カタログに戻る

FENGYUN 1C DEB

運用中PO
NORAD 30454·DEBRIS·🇨🇳 China

打ち上げ May 10, 1999 から Taiyuan Satellite Launch Center

Loading…

次のパス (今後24時間)

TLE

最新Source: Space-Track

元期: Sep 14, 2026, 15:00 UTC

1 30454U 99025AFR 26257.62537931  .00003860  00000-0  16459-2 0  9993
2 30454  98.1355 209.6519 0168030 109.6744  63.9050 14.18268614998673

AllMySatでFENGYUN 1C DEBをリアルタイム追跡

Download on the App Store